Printer-friendly version
Follow the MPC on Twitter Follow the MPC on Facebook The MPC blog
Minor Planet Center

MPEC 2006-W59 : 2006 SO19

The following Minor Planet Electronic Circular may be linked-to from your own Web pages, but must not otherwise be redistributed electronically.

A form allowing access to any MPEC is at the bottom of this page.


Read MPEC 2006-W58 Read MPEC 2006-W60


M.P.E.C. 2006-W59                                Issued 2006 Nov. 22, 15:29 UT

     The Minor Planet Electronic Circulars contain information on unusual
         minor planets and routine data on comets.  They are published
   on behalf of Commission 20 of the International Astronomical Union by the
          Minor Planet Center, Smithsonian Astrophysical Observatory,
                          Cambridge, MA 02138, U.S.A.

             Prepared using the Tamkin Foundation Computer Network

                              MPC@CFA.HARVARD.EDU
          URL http://cfa-www.harvard.edu/iau/mpc.html  ISSN 1523-6714

                                   2006 SO19

                           Revision to MPEC 2006-S30

Additional Observations:
     K06S19O  C2002 12 08.42509 04 27 13.22 +04 35 07.3          20.0 V EW059644
     K06S19O  C2002 12 08.43667 04 27 11.60 +04 35 17.0          20.3 V EW059644
     K06S19O  C2002 12 08.44774 04 27 10.00 +04 35 26.8          20.1 V EW059644
     K06S19O  C2002 12 09.35059 04 25 05.72 +04 48 13.7          20.0 V EW059644

Observer details:
644 Palomar Mountain/NEAT.  Observers E. F. Helin, S. Pravdo, K. Lawrence,
    K. Kuluhiwa, M. Hicks.  Measurers S. Foglia, G. Forti, M. Tombelli.  1.2-m
    Oschin Schmidt + CCD.

Orbital elements:
2006 SO19                                                Earth MOID = 0.1079 AU
Epoch 2006 Sept. 22.0 TT = JDT 2454000.5                MPC
M  57.72455              (2000.0)            P               Q
n   0.71175252     Peri.  169.65483     -0.02875481     +0.96949917
a   1.2423674      Node    98.38437     -0.93378091     +0.06083716
e   0.2720621      Incl.   14.24280     -0.35668807     -0.23742410
P   1.38           H   19.4           G   0.15           U   4
Residuals in seconds of arc
021208 644  0.2-  0.3-    060919 E12  0.5+  0.5+    060921 E12  0.2+  0.3+
021208 644  0.3+  0.2-    060919 E12  0.1-  0.5-    060921 E12  0.4-  0.2+
021208 644  0.1-  0.3+    060919 E12  0.5+  0.3+    060926 E12  0.0   0.2-
021209 644  0.1+  0.1+    060919 E12  0.2+  0.7-    061004 E12  0.0   0.1+
060918 E12  0.6-  0.2-    060920 E12  0.1+  0.2+    061004 E12  0.4+  0.3+
060918 E12  0.5-  0.1+    060920 E12  0.3-  0.1-    061007 E12  0.7+  0.0
060918 E12  0.4-  0.3+    060920 E12  0.6+  0.7+    061007 E12  0.3+  0.2-
060918 E12  0.4-  0.2+    060920 E12  0.4+  0.3-    061015 F84  0.7-  0.4+
060918 E12  0.6+  0.5-    060920 E12  0.2+  0.3+    061015 F84  1.4-  0.3-
060918 E12  0.6-  0.0     060920 E12  0.3-  0.9-    061016 F84  0.1+  0.3-
060918 E12  0.1+  0.4+    060920 E12  0.1-  0.3+    061016 F84  0.2+  0.0
060919 E12  0.1+  0.3+    060921 E12  0.3-  0.2+    061029 E12  0.4+  0.3+
060919 E12  0.1-  0.2-    060921 E12  0.8+  0.9-

Ephemeris:
2006 SO19                a,e,i = 1.24, 0.27, 14                  q = 0.9044
Date    TT    R. A. (2000) Decl.     Delta      r     Elong.  Phase     V
2006 11 21    00 37.37   -26 50.7    0.637    1.383   114.9    40.4    20.7
2006 12 01    00 45.12   -21 05.6    0.723    1.416   110.9    40.6    21.0
2006 12 11    00 55.21   -15 49.5    0.816    1.446   106.5    40.8    21.4
2006 12 21    01 07.17   -10 59.9    0.916    1.474   101.7    40.8    21.7
2006 12 31    01 20.70   -06 33.9    1.019    1.498    96.8    40.7    21.9

Timothy B. Spahr             (C) Copyright 2006 MPC           M.P.E.C. 2006-W59

Read MPEC 2006-W58 Read MPEC 2006-W60


MPEC number:

Enter an MPEC number in one of the following forms:

  • 1997-B01 (the full form)
  • J97B01 (the packed version of the full form)
  • B01 (the abbreviated form)

Valid HTML 4.01!